Location: Crab Orchard
(37.7292°N, 88.8042°W)
Time: 13:27:37
(UTC+00:00)

Feng Yun 1-1 Rocket - Pass Details

Date: 08 December 2019
Orbit: 830 x 933 km, 99.2° (Epoch: 23 January)

Event Time Altitude Azimuth Distance (km) Brightness Sun altitude
Rises 23:30:14 0° 168° (SSE) 3,381 7.5 -10.5°
Reaches altitude 10° 23:32:35 10° 170° (S) 2,441 6.7 -11.0°
Maximum altitude 23:37:59 78° 256° (WSW) 853 4.4 -12.0°
Drops below altitude 10° 23:43:23 10° 343° (NNW) 2,444 6.6 -13.0°
Sets 23:45:45 0° 345° (NNW) 3,385 7.3 -13.4°
